Погода Есенгылы

Погода Есенгылы : погода сейчас, прогноз погоды и архив. Всё, что Вы хотите узнать о погоде Есенгылы!

Хотите узнать прогноз погоды Есенгылы? Тогда Вам сюда: Погода Есенгылы

Поиск расширенной информации на нашем сайте:

Другие новости

Новости СМИ2

Главная страница сайта

Новости сайта

03.07.2017

Напоминаем, что на нашем специализированном сайте Метеоцентр.Азия вы можете получить высокодетализированные автоматические прогнозы погоды по пунктам России, СНГ и мира в авиационном формате (включающие направление и скорость ветра, видимость, явления погоды, количество и форму облачности, нижнюю и верхнюю границу облачности).


Погода Есенгылы - сегодня

Время (UTC), дата Ветер
(°,м/с) 
Видим.   Явления Облачность Т
(°С)
Тd
(°С)
f(%) Тe
(°С)
Pmin
(гПа)
dP
(гПа)
Po
(мм)
O2
(г/м3)
Тmin Tmax R s Состояние
почвы
18 16.09.17 270 (З) 10 км    ясно 
+23.1 +18.2 74 +37  1016.4  0.6  764  280    +32.2       
21 16.09.17 290 (З) 10 км    ясно 
+20.8 +16.9 78 +32  1015.2  -1.2  763  282           
00 17.09.17 290 (З) 10 км    ясно 
+18.5 +13.6 73 +26  1015.2  763  285           
03 17.09.17 320 (СЗ) 10 км    ясно 
+20.2 +10.3 53 +21  1015.8  0.6  764  285           
06 17.09.17 310 (СЗ) 10 км    ясно 
+28.6 +15.1 44 +37  1018.1  2.3  766  276  +18.4         
09 17.09.17 270 (З) 10 км    ясно 
+30.3 +19 51 +46  1018  -0.2  765  273           
12 17.09.17 290 (З) 10 км    ясно 
+30 +14.4 39 +37  1017.7  -0.2  765  275           
15 17.09.17 300 (СЗ) 10 км    ясно 
+27 +18.4 59 +41  1017.7  765  276    +30.6       
18 17.09.17 270 (З) 10 км    ясно 
+24.1 +16.4 62 +35  1018.5  0.8  766  280    +30.6       
21 17.09.17 120 (ЮВ) 10 км    ясно 
+18.9 +14 73 +25  1018.4  0.1  766  286           
00 18.09.17 170 (Ю) 10 км    ясно 
+19.8 +16.4 81 +31  1018  -0.4  766  284           
03 18.09.17 250 (З) 10 км    ясно 
+21.2 +17.5 79 +34  1018.4  0.4  766  282           
06 18.09.17 270 (З) 10 км    ясно 
+29.6 +19.2 54 +46  1020  1.6  767  274  +18.8         
09 18.09.17 320 (СЗ) 10 км    ясно 
+31.3 +18.4 46 +46  1019.1  -1  766  273           
12 18.09.17 360 (С) 10 км    ясно 
+30.5 +18.7 49 +46  1018.3  -0.8  766  273           
15 18.09.17 360 (С) 10 км    ясно 
+27.9 +21.5 68 +49  1017.8  -0.4  765  274    +31.6       
18 18.09.17 340 (С) 10 км    ясно 
+25.4 +21.7 80 +47  1017.4  -0.4  765  277    +31.6       
21 18.09.17 300 (СЗ) 10 км    ясно 
+21.8 +19.1 85 +38  1017.4  765  281           
00 19.09.17 300 (СЗ) 10 км    ясно 
+20.8 +18.4 86 +35  1018  0.6  766  282           
03 19.09.17 180 (Ю) 0500 м  туман  ясно 
+19.7 +19.7 100 +38  1017.4  -0.6  765  283           
06 19.09.17 360 (С) 10 км  {туман}  ясно 
+29.6 +19.5 55 +46  1017.7  0.3  765  274  +19.1         
09 19.09.17 340 (С) 10 км    ясно 
+31.5 +15.2 37 +40  1016.9  -0.9  765  273           
12 19.09.17 320 (СЗ) 10 км    ясно 
+31.6 +16.2 40 +42  1015.8  -1.1  764  272           
15 19.09.17 340 (С) 30000 м    н/о 
+28.2 +28               
18 19.09.17 360 (С) 10 км    ясно 
+25.5 +19.8 71 +43  1016.4  0.7  764  277    +31.9       
Время (UTC), дата Ветер
(°,м/с) 
Видим.   Явления Облачность Т
(°С)
Тd
(°С)
f(%) Тe
(°С)
Pmin
(гПа)
dP
(гПа)
Po
(мм)
O2
(г/м3)
Тmin Tmax R s Состояние
почвы

Для получения пояснительной информации подведите курсор к названию столбца.

ПОГОДА Есенгылы - архив

Всё, что Вы хотите узнать о погоде Есенгылы - удобно и подробно!

Выберите нужную дату (начиная с 1 января 2015* года) и нажмите кнопку "Найти".
Будут отображены архивные сводки погоды по пункту Есенгылы, начиная с указанной даты.


Отображать данные в формате CSV (для использования в таблицах Excel)


Внимание! Наш архив погоды предназначен исключительно для личного некоммерческого использования в познавательных целях. Если Вам необходимы официальные справки о состоянии погоды (для производственных, юридических, коммерческих и т.п. целей), обращайтесь в органы Росгидромета.

*Примечание: данная дата относится к архиву по метеостанциям СССР (Россия, СНГ, Балтия).
Архив по метеостанциям Зарубежной Европы и Азии (кроме Китая) хранится 10 дней, по другим регионам земного шара (Китай, Африка, Америка, Австралия, Океания) - 1 день.

Есенгылы - район местоположения метеостанции


Название, широта, долгота, высота метеостанции:
Есенгылы 37.5°ш. 53.6°д. -22 м над ур. моря [Туркменистан]

Дополнительная информация

В oтличие oт бoльшинства пoгoдных сайтoв мы публикуем пoдрoбную метеoинфoрмацию в детальнoм прoфессиoнальнoм фoрмате.

Характеристики температуры и влажнoсти вoздуха измеряются на высoте 2 м в тени вдали oт зданий и деревьев.
Скoрoсть ветра измеряется на высoте 10 м (на урoвне рoста челoвека скoрoсть ветра ниже в 1.5-2 раза). Если метеoстанция нахoдится в гoрoде или в лесу, тo скoрoсть ветра занижена на 2-4 м/с пo сравнению с oткрытым местoм. Скoрoсть ветра над акватoриями крупных рек и oзёр, а также на вершинах хoлмoв на 2-5 м/с выше, чем в oбычных услoвиях.
Атмoсфернoе давление в разных тoчках местнoсти мoжет значительнo oтличаться oт давления на метеoстанции, в зависимoсти oт услoвий рельефа (при пoдъёме на 10 м давление пoнижается примернo на 1 мм рт.ст.).